{"data":{"norad_id":45434,"intl_designator":"2020-020L","name":"ONEWEB-0018","alt_names":[],"object_type":"PAYLOAD","status":"ACTIVE","operator":null,"country":"UK","launch_date":"2020-03-21","launch_site_code":"TYMSC","launch_vehicle":null,"mission":null,"orbit_class":"UNKNOWN","rcs_meters":null,"size_class":null,"mass_kg":null,"dimensions":null,"purposes":["comms"],"wikipedia_slug":null,"has_3d_model":false,"image_url":null,"decayed_at":null,"tle_current":{"epoch":"2026-05-25T02:23:58.791264Z","epoch_age_seconds":62596,"freshness":"FRESH","line1":"1 45434U 20020L   26145.09998601  .00000098  00000+0  24085-3 0  9992","line2":"2 45434  87.8913  25.6594 0001817  69.1070 291.0252 13.11418824299609","mean_motion":13.11418824,"eccentricity":0.0001817,"inclination_deg":87.8913,"raan_deg":25.6594,"arg_perigee_deg":69.107,"mean_anomaly_deg":291.0252,"bstar":0.00024085,"rev_number":29960,"period_min":109.80473771208,"perigee_km":1216.2952837276,"apogee_km":1219.0556019693,"semimajor_km":7595.8124428485,"source":"CELESTRAK","updated_at":"2026-05-25T13:38:22.342897Z"}}}